Location: *
(38.9555°S, 57.3572°E)
Time: 01:28:58
(UTC+00:00)

Cosmos 2266 Rocket - Pass Details

Date: 15 July 2020
Orbit: 935 x 1007 km, 82.9° (Epoch: 06 August)

Event Time Altitude Azimuth Distance (km) Brightness Sun altitude
Rises 13:25:31 0° 187° (S) 3,638 6.8 -4.0°
Reaches altitude 10° 13:28:02 10° 186° (S) 2,682 6.1 -4.4°
Maximum altitude 13:34:10 85° 96° (E) 953 4.0 -5.5°
Drops below altitude 10° 13:40:14 10° 7° (N) 2,652 6.5 -6.6°
Sets 13:42:42 0° 6° (N) 3,593 7.2 -7.0°
